Weather History for Detroit, MI

Change the Weather History Date:

Monday, November 26, 2012

  Actual Average Record
Temperature  
Mean Temperature 33 °F -  
Max Temperature 36 °F 45 °F 60 °F (1960)
Min Temperature 30 °F 34 °F 10 °F (1949)
Degree Days  
Heating Degree Days 32    
Moisture  
Dew Point 20 °F    
Average Humidity 59    
Maximum Humidity 75    
Minimum Humidity 50    
Precipitation  
Precipitation 0.00 in - - ()
Sea Level Pressure  
Sea Level Pressure 30.18 in    
Wind  
Wind Speed 5 mph (WNW)    
Max Wind Speed 8 mph    
Max Gust Speed -    
Visibility 10 miles    
Events      
Averages and records for this station are not official NWS values.
T = Trace of Precipitation, MM = Missing Value Source: NWS Daily Summary

Daily Weather History Graph

Daily Weather History Graph

Search for Another Location

Airport:

Trip Planner

Search our weather history database for the weather conditions in past years. The results will help you decide how hot, cold, wet, or windy it might be!

Date:

Astronomy

Nov. 26, 2012 Rise Set
Actual Time 7:36 AM EST 5:02 PM EST
Civil Twilight 7:05 AM EST 5:33 PM EST
Nautical Twilight 6:30 AM EST 6:07 PM EST
Astronomical Twilight 5:57 AM EST 6:41 PM EST
Moon 3:54 PM EST (11/26) 5:44 AM EST (11/26)
Length of Visible Light 10h 27m
Length of Day
9h 25m
Waxing Gibbous, 97% of the Moon is Illuminated
Nov 26
Waxing Gibbous
Nov 28
Full
Dec 6
Last Quarter
Dec 13
New
Dec 20
First Quarter

Hourly Weather History & Observations

Time (EST) Temp. Windchill Dew Point Humidity Pressure Visibility Wind Dir Wind Speed Gust Speed Precip Events Conditions
12:53 AM 34.0 °F 27.2 °F 21.9 °F 61% 30.03 in 10.0 mi WNW 8.1 mph - N/A   Mostly Cloudy
1:53 AM 34.0 °F 31.0 °F 21.9 °F 61% 30.04 in 10.0 mi WNW 3.5 mph - N/A   Mostly Cloudy
2:53 AM 33.1 °F 28.7 °F 21.9 °F 64% 30.06 in 10.0 mi NW 4.6 mph - N/A   Mostly Cloudy
3:53 AM 30.0 °F 25.2 °F 23.0 °F 75% 30.07 in 10.0 mi SW 4.6 mph - N/A   Mostly Cloudy
4:53 AM 33.1 °F 28.7 °F 23.0 °F 66% 30.08 in 10.0 mi West 4.6 mph - N/A   Overcast
5:53 AM 33.1 °F 28.7 °F 23.0 °F 66% 30.11 in 10.0 mi West 4.6 mph - N/A   Overcast
6:53 AM 33.1 °F 27.7 °F 24.1 °F 70% 30.13 in 10.0 mi West 5.8 mph - N/A   Overcast
7:53 AM 33.1 °F 28.7 °F 24.1 °F 70% 30.15 in 10.0 mi West 4.6 mph - N/A   Overcast
8:53 AM 34.0 °F 31.0 °F 23.0 °F 64% 30.17 in 10.0 mi West 3.5 mph - N/A   Overcast
9:53 AM 34.0 °F 29.8 °F 21.9 °F 61% 30.19 in 10.0 mi West 4.6 mph - N/A   Overcast
10:53 AM 35.1 °F 31.0 °F 21.9 °F 59% 30.21 in 10.0 mi NW 4.6 mph - N/A   Overcast
11:53 AM 35.1 °F 28.6 °F 21.9 °F 59% 30.20 in 10.0 mi WNW 8.1 mph - N/A   Overcast
12:53 PM 36.0 °F 32.1 °F 21.9 °F 57% 30.19 in 10.0 mi West 4.6 mph - N/A   Overcast
1:53 PM 36.0 °F 30.3 °F 21.9 °F 57% 30.19 in 10.0 mi NW 6.9 mph - N/A   Overcast
2:53 PM 35.1 °F 30.1 °F 19.9 °F 54% 30.20 in 10.0 mi NW 5.8 mph - N/A   Overcast
3:53 PM 35.1 °F 28.6 °F 19.0 °F 52% 30.22 in 10.0 mi NW 8.1 mph - N/A   Overcast
4:53 PM 34.0 °F 28.0 °F 18.0 °F 52% 30.23 in 10.0 mi NW 6.9 mph - N/A   Overcast
5:53 PM 34.0 °F 28.0 °F 18.0 °F 52% 30.24 in 10.0 mi NNW 6.9 mph - N/A   Overcast
6:53 PM 33.1 °F 26.1 °F 17.1 °F 52% 30.25 in 10.0 mi NNW 8.1 mph - N/A   Overcast
7:53 PM 32.0 °F 26.4 °F 16.0 °F 52% 30.27 in 10.0 mi NNW 5.8 mph - N/A   Overcast
8:53 PM 32.0 °F 27.5 °F 16.0 °F 52% 30.28 in 10.0 mi NNW 4.6 mph - N/A   Clear
9:53 PM 32.0 °F - 15.1 °F 50% 30.30 in 10.0 mi Calm Calm - N/A   Partly Cloudy
10:53 PM 32.0 °F - 17.1 °F 54% 30.30 in 10.0 mi Calm Calm - N/A   Overcast
11:53 PM 32.0 °F - 17.1 °F 54% 30.30 in 10.0 mi Calm Calm - N/A   Overcast